Find OneWeb SL0133

NORAD ID: 47263 Int'l Des: 2020-100 Owner: ONEWEB Country: UK Constellation: oneweb operational
LEOCIRCULARPOLARONEWEB_TYPE

リアルタイム位置

3D地球を読み込み中...

OneWeb SL0133について

説明を読み込み中...

次回通過

Passes for default location (London). Set your location on the main map for personalized predictions.

高度履歴

Loading altitude history...

軌道要素

1 47263U 20100F 26126.36784487 -.00000354 00000-0 -10184-2 0 9999
2 47263 87.8979 358.9625 0001779 81.1256 279.0074 13.12444547259041
Epoch: May 6, 2026 • Age: 9 hours

現在のステータス

高度 1215.6 km
速度 7.25 km/s
衛星直下点 21.09°N, 136.17°W
打ち上げ日 Dec 18, 2020
運用期間 5.3 years
タイプ internet

技術仕様

分類 Payload
質量 148.00 kg
乾燥質量 140.00 kg
総質量 148.00 kg
長さ 1.30 m
直径 1.00 m
スパン 5.00 m
形状 Trapezoid+2 pan
製造者 ONEWUS
バスタイプ ARROW
フェーズステータス In Orbit
所有者/国 ONEWEB/UK

Most Searched